Date String (YYYY-MM-DD hh:mm:ss) UTC,Instrument flags,absolute air pressure of the measurement (hPa),sample flow rate (lpm),inlet stack bypass flow (lpm),air temperature of the measurement (°C),ambient temperature measured by the external sensor (°C),aerosol sample conditioner tube jacket temperature (°C),OPC LED temperature (°C),internal box temperature (°C),relative humidity of the measurement (%),span deviation,mass concentration of particles derived from Lorenz-Mie calculation of OPC scattering (μg/m³),mass concentration of particles derived from Lorenz-Mie calculation of OPC scattering (μg/m³),mass concentration of particles derived from Lorenz-Mie calculation of OPC scattering (μg/m³)
DateTimeUTC,F1_M11,P_M11,Q1_M11,Q2_M11,T1_M11,T2_M11,T3_M11,T4_M11,T5_M11,U1_M11,ZSPAN_M11,X0_M11,X2_M11,X1_M11
2024-02-12 09:00:00,SystemResetWarning,0827.7,5.00,000.00,018.4,017.7,000.0,026.8,020.0,11.2,0000.0,0002.57,0001.70,0001.53
2024-02-12 09:01:00,SystemResetWarning,0827.7,4.99,000.00,018.4,017.7,000.0,026.8,020.0,11.2,0000.0,0002.73,0001.70,0001.52
2024-02-12 09:02:00,SystemResetWarning,0827.7,5.00,000.00,018.3,017.6,000.0,026.8,020.0,11.2,0000.0,0003.92,0001.69,0001.51
2024-02-12 09:03:00,SystemResetWarning,0827.7,4.99,000.00,018.3,017.6,000.0,026.9,020.0,11.2,0000.0,0003.93,0001.69,0001.50
2024-02-12 09:04:00,SystemResetWarning,0827.7,5.00,000.00,018.3,017.6,000.0,026.8,020.0,11.2,0000.0,0003.93,0001.69,0001.50
2024-02-12 09:05:00,SystemResetWarning,0827.7,5.00,000.00,018.3,017.6,000.0,026.9,020.0,11.3,0000.0,0003.96,0001.70,0001.51
2024-02-12 09:06:00,SystemResetWarning,0827.7,5.02,000.00,018.3,017.5,000.0,026.9,020.0,11.3,0000.0,0003.87,0001.67,0001.51
2024-02-12 09:07:00,SystemResetWarning,0827.7,5.00,000.00,018.3,017.5,000.0,026.9,020.0,11.3,0000.0,0003.70,0001.64,0001.50
2024-02-12 09:08:00,SystemResetWarning,0827.7,4.99,000.00,018.3,017.6,000.0,026.9,020.1,11.4,0000.0,0003.34,0001.62,0001.50
2024-02-12 09:09:00,SystemResetWarning,0827.7,5.01,000.00,018.4,018.3,000.0,027.0,020.5,11.4,0000.0,0003.40,0001.64,0001.51
2024-02-12 09:10:00,SystemResetWarning,0827.7,5.00,000.00,018.6,019.0,000.0,027.1,020.9,11.3,0000.0,0003.42,0001.64,0001.49
2024-02-12 09:11:00,SystemResetWarning,0827.7,4.99,000.00,018.7,018.9,000.0,027.0,020.7,11.2,0000.0,0003.39,0001.62,0001.48
2024-02-12 09:12:00,SystemResetWarning,0827.7,4.99,000.00,018.7,018.7,000.0,027.0,020.5,11.2,0000.0,0003.39,0001.63,0001.49
2024-02-12 09:13:00,SystemResetWarning,0827.7,5.01,000.00,018.6,018.6,000.0,026.9,020.3,11.2,0000.0,0002.07,0001.63,0001.50
2024-02-12 09:14:00,SystemResetWarning,0827.7,5.01,000.00,018.6,018.4,000.0,026.9,020.2,11.2,0000.0,0001.99,0001.62,0001.49
2024-02-12 09:15:00,SystemResetWarning,0827.6,5.00,000.00,018.6,018.2,000.0,026.9,020.1,11.2,0000.0,0002.01,0001.63,0001.49
2024-02-12 09:16:00,SystemResetWarning,0827.7,4.99,000.00,018.5,018.1,000.0,026.9,020.1,11.3,0000.0,0001.98,0001.63,0001.50
2024-02-12 09:17:00,SystemResetWarning,0827.6,4.99,000.00,018.5,018.0,000.0,026.8,020.0,11.2,0000.0,0001.98,0001.63,0001.50
2024-02-12 09:18:00,SystemResetWarning,0827.6,4.99,000.00,018.4,017.9,000.0,026.8,020.0,11.2,0000.0,0002.03,0001.66,0001.52
2024-02-12 09:19:00,SystemResetWarning,0827.7,5.02,000.00,018.4,017.8,000.0,026.8,020.0,11.3,0000.0,0002.06,0001.69,0001.54
2024-02-12 09:20:00,SystemResetWarning,0827.6,5.01,000.00,018.4,017.7,000.0,026.9,020.0,11.3,0000.0,0002.02,0001.70,0001.56
2024-02-12 09:21:00,SystemResetWarning,0827.6,5.00,000.00,018.4,017.7,000.0,026.9,020.0,11.3,0000.0,0001.99,0001.71,0001.59
2024-02-12 09:22:00,SystemResetWarning,0827.6,5.00,000.00,018.3,017.7,000.0,026.8,020.0,11.3,0000.0,0002.18,0001.76,0001.62
2024-02-12 09:23:00,SystemResetWarning,0827.7,5.00,000.00,018.3,017.6,000.0,026.9,020.0,11.3,0000.0,0002.32,0001.81,0001.64
2024-02-12 09:24:00,SystemResetWarning,0827.6,5.00,000.00,018.3,017.6,000.0,026.9,020.0,11.3,0000.0,0002.36,0001.84,0001.67
2024-02-12 09:25:00,SystemResetWarning,0827.6,5.00,000.00,018.3,017.6,000.0,026.9,020.0,11.0,0000.0,0002.44,0001.90,0001.71
2024-02-12 09:26:00,SystemResetWarning,0827.6,5.00,000.00,018.3,017.5,000.0,026.9,020.0,11.0,0000.0,0002.50,0001.93,0001.74
2024-02-12 09:27:00,SystemResetWarning,0827.6,5.00,000.00,018.3,017.5,000.0,026.9,020.0,11.0,0000.0,0002.55,0001.97,0001.78
2024-02-12 09:28:00,SystemResetWarning,0827.7,5.00,000.00,018.3,017.7,000.0,026.9,020.2,11.0,0000.0,0002.59,0002.00,0001.81
2024-02-12 09:29:00,SystemResetWarning,0827.7,5.02,000.00,018.5,018.5,000.0,027.0,020.6,10.9,0000.0,0002.62,0002.03,0001.84
2024-02-12 09:30:00,SystemResetWarning,0827.7,4.99,000.00,018.7,019.0,000.0,027.1,020.9,10.8,0000.0,0002.67,0002.07,0001.87
2024-02-12 09:31:00,SystemResetWarning,0827.7,5.00,000.00,018.7,018.8,000.0,027.0,020.7,10.8,0000.0,0003.98,0002.12,0001.93
2024-02-12 09:32:00,SystemResetWarning,0827.6,5.02,000.00,018.7,018.7,000.0,026.9,020.4,10.9,0000.0,0004.42,0002.16,0001.96
2024-02-12 09:33:00,SystemResetWarning,0827.6,4.98,000.00,018.6,018.5,000.0,026.9,020.3,10.9,0000.0,0004.28,0002.17,0002.01
2024-02-12 09:34:00,SystemResetWarning,0827.6,5.00,000.00,018.6,018.3,000.0,026.9,020.2,11.0,0000.0,0004.23,0002.20,0002.06
2024-02-12 09:35:00,SystemResetWarning,0827.6,5.01,000.00,018.5,018.2,000.0,026.9,020.1,11.0,0000.0,0004.26,0002.23,0002.08
2024-02-12 09:36:00,SystemResetWarning,0827.6,5.01,000.00,018.5,018.0,000.0,026.8,020.0,11.1,0000.0,0004.28,0002.24,0002.09
2024-02-12 09:37:00,SystemResetWarning,0827.6,4.99,000.00,018.5,017.9,000.0,026.8,020.0,11.2,0000.0,0004.26,0002.25,0002.11
2024-02-12 09:38:00,SystemResetWarning,0827.7,4.99,000.00,018.4,017.9,000.0,026.8,020.0,11.3,0000.0,0004.23,0002.24,0002.12
2024-02-12 09:39:00,SystemResetWarning,0827.6,5.01,000.00,018.4,017.8,000.0,026.8,020.0,11.4,0000.0,0004.21,0002.23,0002.11
2024-02-12 09:40:00,SystemResetWarning,0827.6,5.00,000.00,018.4,017.7,000.0,026.8,020.0,11.4,0000.0,0004.20,0002.23,0002.10
2024-02-12 09:41:00,SystemResetWarning,0827.6,5.00,000.00,018.4,017.7,000.0,026.9,020.0,11.5,0000.0,0004.17,0002.21,0002.09
2024-02-12 09:42:00,SystemResetWarning,0827.6,5.00,000.00,018.4,017.6,000.0,026.9,020.0,11.5,0000.0,0002.88,0002.17,0002.06
2024-02-12 09:43:00,SystemResetWarning,0827.6,5.00,000.00,018.3,017.6,000.0,026.9,020.0,11.5,0000.0,0002.43,0002.14,0002.04
2024-02-12 09:44:00,SystemResetWarning,0827.6,5.00,000.00,018.3,017.6,000.0,026.9,020.0,11.6,0000.0,0002.38,0002.10,0002.00
2024-02-12 09:45:00,SystemResetWarning,0827.5,5.00,000.00,018.3,017.5,000.0,026.9,020.0,11.4,0000.0,0002.35,0002.07,0001.95
2024-02-12 09:46:00,SystemResetWarning,0827.5,5.00,000.00,018.3,017.7,000.0,026.9,020.1,11.2,0000.0,0002.30,0002.02,0001.90
2024-02-12 09:47:00,SystemResetWarning,0827.5,5.01,000.00,018.5,018.4,000.0,027.0,020.6,11.1,0000.0,0002.17,0001.93,0001.84
2024-02-12 09:48:00,SystemResetWarning,0827.6,4.99,000.00,018.7,019.0,000.0,027.1,020.9,10.9,0000.0,0002.12,0001.87,0001.77
2024-02-12 09:49:00,SystemResetWarning,0827.5,4.99,000.00,018.7,018.9,000.0,027.0,020.7,10.8,0000.0,0002.05,0001.81,0001.71
2024-02-12 09:50:00,SystemResetWarning,0827.5,5.00,000.00,018.7,018.7,000.0,027.0,020.5,10.8,0000.0,0002.01,0001.77,0001.66
2024-02-12 09:51:00,SystemResetWarning,0827.5,5.00,000.00,018.6,018.5,000.0,026.9,020.3,10.8,0000.0,0001.94,0001.70,0001.60
2024-02-12 09:52:00,SystemResetWarning,0827.7,5.00,000.00,018.6,018.4,000.0,026.9,020.2,10.7,0000.0,0001.96,0001.65,0001.54
2024-02-12 09:53:00,SystemResetWarning,0827.9,5.00,000.00,018.6,018.2,000.0,026.9,020.1,10.7,0000.0,0002.00,0001.60,0001.46
2024-02-12 09:54:00,SystemResetWarning,0827.9,5.00,000.00,018.5,018.1,000.0,026.9,020.0,11.0,0000.0,0002.04,0001.54,0001.40
2024-02-12 09:55:00,SystemResetWarning,0827.9,5.00,000.00,018.5,018.0,000.0,026.9,020.0,11.4,0000.0,0001.99,0001.49,0001.35
2024-02-12 09:56:00,SystemResetWarning,0827.5,5.02,000.00,018.4,017.9,000.0,026.9,020.0,11.5,0000.0,0001.93,0001.44,0001.31
2024-02-12 09:57:00,SystemResetWarning,0827.5,5.00,000.00,018.4,017.8,000.0,026.9,020.0,11.4,0000.0,0001.92,0001.41,0001.28
2024-02-12 09:58:00,SystemResetWarning,0827.4,4.99,000.00,018.4,017.7,000.0,026.9,020.0,11.2,0000.0,0001.95,0001.42,0001.28
2024-02-12 09:59:00,SystemResetWarning,0827.4,4.99,000.00,018.4,017.7,000.0,026.9,020.0,11.3,0000.0,0001.96,0001.44,0001.30
